W4EDP Weather Reports


time (UTC)temp
F
wind
direction
speed
knots
gust
knots
rain 1hr
in
rain 24hr
in
rain mn
in
humidity
%
barometer
mb
20260506051346 66 0 1.7 7.8 0.00 0.00 0.00 67 1009.8
20260506050342 66 0 0.9 7.8 0.00 0.00 0.00 67 1009.8
20260506044333 66 0 0.9 7.0 0.00 0.00 0.00 65 1010.2
20260506043357 66 0 1.7 7.0 0.00 0.00 0.00 65 1010.2
20260506042345 66 0 1.7 7.0 0.00 0.00 0.00 64 1010.1
20260506041332 66 0 1.7 14.8 0.00 0.00 0.00 64 1010.1
20260506040332 66 0 0.9 14.8 0.00 0.00 0.00 63 1010.1
20260506034218 66 0 0.9 7.0 0.00 0.00 0.00 62 1010.3
20260506033202 66 0 1.7 13.0 0.00 0.00 0.00 61 1010.3
20260506032209 66 0 1.7 13.0 0.00 0.00 0.00 61 1010.3
20260506031135 66 0 1.7 7.8 0.00 0.00 0.00 61 1010.1
20260506030126 66 0 1.7 7.8 0.00 0.00 0.00 61 1010.1
20260506024048 67 0 3.5 14.8 0.00 0.00 0.00 59 1010.7
20260506023019 67 0 3.5 14.8 0.00 0.00 0.00 59 1010.7
20260506022020 67 0 3.5 7.8 0.00 0.00 0.00 59 1010.2
20260506021045 67 0 1.7 13.0 0.00 0.00 0.00 59 1010.0
20260506020030 67 0 1.7 15.6 0.00 0.00 0.00 59 1010.0
20260506015007 67 0 1.7 17.4 0.00 0.00 0.00 59 1009.8
20260506013955 67 0 3.5 17.4 0.00 0.00 0.00 59 1009.7
20260506012958 67 0 3.5 20.9 0.00 0.00 0.00 59 1009.7
20260506011945 67 0 3.5 20.9 0.00 0.00 0.00 59 1009.7
20260506011007 67 0 3.5 14.8 0.00 0.00 0.00 59 1009.7
20260506004922 67 0 1.7 7.8 0.00 0.00 0.00 58 1009.7
20260506003920 67 0 1.7 14.8 0.00 0.00 0.00 57 1009.7
20260506002905 67 0 3.5 14.8 0.00 0.00 0.00 56 1009.7
20260506001924 67 0 1.7 7.8 0.00 0.00 0.00 55 1009.7
20260506000912 67 0 1.7 7.8 0.00 0.00 0.00 55 1010.0
20260505235857 67 0 1.7 7.8 0.00 0.00 0.00 54 1010.0
20260505234844 67 0 1.7 7.0 0.00 0.00 0.00 54 1010.0
20260505233844 67 0 1.7 7.0 0.00 0.00 0.00 53 1009.9
20260505232836 67 0 0.9 7.0 0.00 0.00 0.00 54 1010.2
20260505231820 67 0 0.9 7.8 0.00 0.00 0.00 52 1010.2
20260505230843 68 0 0.9 7.0 0.00 0.00 0.00 51 1010.0
20260505225853 67 0 1.7 7.0 0.00 0.00 0.00 52 1009.9
20260505224837 67 0 0.9 7.0 0.00 0.00 0.00 50 1009.9
20260505223814 68 0 1.7 7.0 0.00 0.00 0.00 52 1010.2
20260505222837 67 0 1.7 7.0 0.00 0.00 0.00 51 1009.9
20260505220759 66 0 0.9 5.2 0.00 0.00 0.00 58 1010.1
20260505215726 65 0 0.9 3.5 0.00 0.00 0.00 59 1009.6
20260505214723 64 0 1.7 5.2 0.00 0.00 0.00 65 1009.6
20260505213734 64 0 3.5 11.3 0.00 0.00 0.00 60 1009.6
20260505212746 66 188 1.7 11.3 0.00 0.00 0.00 57 1010.6
20260505211804 67 200 0.9 2.6 0.00 0.00 0.00 55 1010.6
20260505204519 70 213 1.7 7.8 0.00 0.00 0.00 51 1010.6
20260505202413 71 178 0.9 7.8 0.00 0.00 0.00 49 1010.9
20260505201427 71 227 1.7 7.8 0.00 0.00 0.00 50 1010.9
20260505200401 72 145 1.7 7.8 0.00 0.00 0.00 47 1011.2
20260505195355 73 198 1.7 19.1 0.00 0.00 0.00 45 1011.2
20260505194330 72 101 3.5 19.1 0.00 0.00 0.00 46 1011.3
20260505193256 73 218 1.7 17.4 0.00 0.00 0.00 43 1011.3
20260505192249 73 123 3.5 17.4 0.00 0.00 0.00 41 1011.7
20260505191237 74 207 3.5 14.8 0.00 0.00 0.00 42 1011.3
20260505190243 73 159 1.7 14.8 0.00 0.00 0.00 45 1011.3
20260505185231 73 125 3.5 9.6 0.00 0.00 0.00 42 1011.5
20260505184252 73 304 3.5 15.6 0.00 0.00 0.00 44 1011.8
20260505183302 73 145 3.5 15.6 0.00 0.00 0.00 43 1011.8
20260505182236 73 259 3.5 13.0 0.00 0.00 0.00 44 1011.8
20260505181234 73 168 1.7 7.8 0.00 0.00 0.00 45 1012.2
20260505180221 72 146 3.5 13.0 0.00 0.00 0.00 46 1012.2
20260505175220 71 134 3.5 13.0 0.00 0.00 0.00 48 1011.9
20260505173115 71 85 1.7 7.8 0.00 0.00 0.00 49 1012.2
20260505172130 71 167 0.9 9.6 0.00 0.00 0.00 49 1012.4
20260505171056 70 241 0.9 9.6 0.00 0.00 0.00 52 1012.9
20260505170031 70 136 3.5 7.8 0.00 0.00 0.00 48 1012.9
20260505163914 70 200 1.7 15.6 0.00 0.00 0.00 50 1013.0
20260505162917 69 286 3.5 15.6 0.00 0.00 0.00 53 1013.0
20260505161927 68 286 1.7 7.8 0.00 0.00 0.00 57 1013.0
20260505160920 68 344 1.7 19.1 0.00 0.00 0.00 53 1013.0
20260505152900 65 254 1.7 7.8 0.00 0.00 0.00 63 1013.1
20260505151842 65 211 0.9 7.0 0.00 0.00 0.00 64 1013.1
20260505150812 64 292 1.7 13.0 0.00 0.00 0.00 65 1013.1
20260505124618 59 0 1.7 9.6 0.00 0.00 0.00 66 1012.6
20260505123612 59 0 1.7 7.8 0.00 0.00 0.00 66 1012.3
20260505122612 59 0 0.9 7.8 0.00 0.00 0.00 67 1012.2
20260505121609 58 0 1.7 13.0 0.00 0.00 0.00 67 1012.2
20260505120548 58 0 1.7 13.0 0.00 0.00 0.00 66 1012.1
20260505115544 58 0 1.7 7.0 0.00 0.00 0.00 64 1012.1
20260505114550 58 0 1.7 7.0 0.00 0.00 0.00 65 1012.1
20260505112418 60 0 1.7 7.8 0.00 0.00 0.00 62 1011.6
20260505111403 60 0 3.5 7.8 0.00 0.00 0.00 61 1011.5
20260505110342 60 0 1.7 9.6 0.00 0.00 0.00 61 1011.5
20260505101130 61 0 3.5 19.1 0.00 0.00 0.00 55 1011.1
20260505100104 61 0 3.5 19.1 0.00 0.00 0.00 54 1011.1
20260505093918 61 0 3.5 9.6 0.00 0.00 0.00 53 1011.2
20260505092919 61 0 1.7 7.0 0.00 0.00 0.00 53 1011.2
20260505091903 61 0 3.5 9.6 0.00 0.00 0.00 53 1011.3
20260505085747 61 0 1.7 9.6 0.00 0.00 0.00 54 1011.3
20260505084746 61 0 1.7 7.0 0.00 0.00 0.00 54 1011.3
20260505083751 61 0 1.7 7.8 0.00 0.00 0.00 55 1011.4
20260505082717 61 0 1.7 7.8 0.00 0.00 0.00 54 1011.6
20260505081712 61 0 1.7 14.8 0.00 0.00 0.00 54 1011.6
20260505080656 61 0 1.7 14.8 0.00 0.00 0.00 53 1011.7
20260505075716 61 0 1.7 13.0 0.00 0.00 0.00 53 1011.7
20260505074659 61 0 1.7 7.8 0.00 0.00 0.00 53 1011.7
20260505073719 62 0 3.5 7.8 0.00 0.00 0.00 52 1011.8
20260505072704 62 0 1.7 9.6 0.00 0.00 0.00 52 1011.8
20260505070528 62 0 3.5 14.8 0.00 0.00 0.00 51 1011.9
20260505065513 62 0 3.5 14.8 0.00 0.00 0.00 50 1011.9
20260505064528 62 0 3.5 9.6 0.00 0.00 0.00 50 1011.9
20260505063546 63 0 3.5 9.6 0.00 0.00 0.00 49 1012.0
20260505062600 63 0 3.5 7.8 0.00 0.00 0.00 50 1012.3
20260505061610 63 0 3.5 11.3 0.00 0.00 0.00 48 1012.3
20260505060555 63 0 1.7 11.3 0.00 0.00 0.00 48 1012.2